Location: Unspecified
(49.2170°N, 0.0000°E)
Time: 23:57:52
(UTC+00:00)

SR - Pass Details

Date: 30 January 2021
Orbit: 573 x 882 km, 66.7° (Epoch: 03 March)

Event Time Altitude Azimuth Distance (km) Brightness Sun altitude
Exits shadow 03:59:56 24° 27° (NNE) 1,585 ? -34.8°
Drops below altitude 10° 04:02:03 10° 33° (NNE) 2,366 ? -34.5°
Sets 04:04:37 0° 36° (NE) 3,346 ? -34.1°
